Location: Chittendens Corners
(41.2320°N, 81.4940°W)
Time: 14:33:53
(UTC+00:00)

Daily predictions for brighter satellites

Satellite Brightness Start Highest point End
(mag) Time Altitude Azimuth Time Altitude Azimuth Time Altitude Azimuth
Cosmos 292 Rocket 4.0 22:46:48 10° SSW 22:51:35 79° WNW 22:56:26 10° NNE
H-2A R/B 3.9 22:48:33 10° S 22:52:50 48° W 22:57:14 10° NNW
Timation 2 Rocket 4.2 22:49:08 10° NNW 22:55:49 76° ENE 23:02:40 10° SSE
Radarsat Rocket 4.3 22:49:49 10° S 22:55:53 72° WSW 23:01:42 10° NNW
Meteor 2-10 Rocket 4.4 22:53:02 10° SE 22:57:22 26° E 23:01:35 10° NE
Okean-O 4.0 22:54:27 10° ESE 22:57:33 19° ENE 23:00:40 10° NNE
SMAP 3.2 22:56:53 10° S 23:01:31 81° WSW 23:06:12 10° NNW
Cosmos 1553 Rocket 4.3 22:56:06 10° SSE 23:02:03 44° E 23:07:56 10° NNE
Cosmos 1408 4.1 23:00:22 10° NNE 23:02:46 16° ENE 23:05:09 10° ESE
Cosmos 1689 Rocket 3.2 23:00:39 10° NE 23:03:01 23° E 23:05:23 10° SSE
FengYun 1-2 T 4.3 22:58:05 10° SSE 23:03:41 67° ENE 23:09:16 10° N
H-2A R/B 3.6 23:02:06 10° E 23:05:22 16° ENE 23:08:39 10° NNE
AQUARIUS 4.3 23:02:46 10° S 23:07:16 79° WSW 23:11:47 10° NNW
Cosmos 1953 Rocket 3.6 23:05:07 10° N 23:09:34 90° N 23:14:01 10° S
Cosmos 44 Rocket 4.2 23:08:31 10° SSE 23:12:27 27° ESE 23:16:15 11° ENE
Cosmos 2058 Rocket 3.0 23:09:30 10° S 23:13:58 76° E 23:18:30 10° N
Lacrosse 5 4.0 23:11:44 10° NNW 23:14:07 13° N 23:16:30 10° NNE
Cosmos 2219 3.2 23:12:35 10° NNW 23:18:23 76° ENE 23:24:07 10° SSE
Meteor 2-16 Rocket 4.5 23:12:20 10° N 23:18:28 88° W 23:24:34 10° S
Cosmos 1892 3.0 23:17:54 10° N 23:21:38 43° E 23:25:20 10° SSE
Cosmos 1939 Rocket 2.9 23:19:23 10° SSE 23:23:15 53° ENE 23:27:04 10° N
SL-08 R/B 4.5 23:18:17 10° N 23:24:23 61° E 23:30:23 10° SSE
Cosmos 1076 Rocket 4.5 23:21:10 10° NNE 23:24:43 25° ENE 23:28:15 10° SE
Cosmos 968 Rocket 3.5 23:20:06 10° N 23:25:14 55° ENE 23:30:17 10° SE
Cosmos 2082 4.2 23:20:01 10° N 23:25:21 38° ENE 23:30:39 10° SE
Cosmos 1656 3.8 23:19:56 10° SSW 23:25:29 83° WNW 23:31:10 10° NNE
CZ-4B R/B 2.5 23:24:29 10° N 23:27:32 43° WNW 23:30:29 10° SSW
SAR-Lupe-4 3.5 23:24:37 10° NNE 23:28:13 88° WNW 23:31:48 10° SSW
Cosmos 1300 4.4 23:25:24 10° SW 23:28:56 36° WNW 23:32:30 10° N
Aureole 3 Rocket 3.3 23:25:42 10° S 23:29:39 80° W 23:35:11 10° N
Cosmos 1745 Rocket 4.2 23:25:06 10° N 23:31:13 49° ENE 23:37:20 10° SSE
NOSS 3-3 (A) 3.8 23:25:50 10° SSW 23:31:30 70° ESE 23:37:51 10° NE
NOSS 3-3 (C) 3.8 23:25:57 10° SSW 23:31:37 69° ESE 23:37:58 10° NE
USA 307 3.7 23:29:04 10° NW 23:33:02 36° NNE 23:35:04 23° E
Cosmos 1400 Rocket 3.5 23:29:12 10° SSW 23:33:14 58° WNW 23:37:17 10° N
Feng Yun 1-1 Rocket 4.4 23:30:13 10° SSE 23:36:08 87° WSW 23:42:06 10° NNW
Cosmos 1825 3.1 23:33:17 10° NNE 23:36:32 26° ENE 23:37:06 25° E
ERS-2 3.9 23:33:36 10° N 23:36:55 34° WNW 23:40:14 10° SW
COSMO-SKYMED 1 2.5 23:33:40 10° NNE 23:38:02 87° ESE 23:42:22 10° SSW
USA 308 3.6 23:34:02 10° NW 23:38:03 38° NNE 23:39:51 25° E
IRS-1C Rocket 4.0 23:32:52 10° SSE 23:38:07 80° ENE 23:43:25 10° NNW
Cosmos 2369 3.8 23:32:46 10° S 23:38:20 57° ESE 23:43:55 10° NNE
GPS 2-04 Rocket1 4.1 23:35:52 10° SW 23:39:21 28° SSE 23:41:13 20° SE
Helios 1A Rocket 2.9 23:37:50 10° SSE 23:41:53 58° ENE 23:45:55 10° N
OAO 2 Rocket 4.1 23:39:28 10° WSW 23:44:09 41° S 23:46:58 21° ESE
CSL-04 Rocket 4.3 23:40:19 10° SE 23:45:17 35° ENE 23:50:14 10° N
ATLAS 2AS CENTAUR R/B 3.9 23:39:51 10° NNW 23:45:58 26° NNE 23:48:38 21° ENE
CZ-4 R/B 4.3 23:41:55 10° SSE 23:46:04 78° ENE 23:50:14 10° N
CZ-2D R/B 3.1 23:42:27 10° SSE 23:46:15 73° ENE 23:50:03 10° N
Cosmos 1340 3.5 23:43:49 10° NNW 23:47:30 52° W 23:51:09 10° S
YAOGAN 1 2.7 23:43:46 10° SE 23:47:54 47° ENE 23:52:04 10° N
Cosmos 2227 Rocket 2.3 23:43:20 10° NNW 23:49:00 80° WSW 23:54:39 10° SSE
Cosmos 2263 Rocket 3.6 23:46:25 10° N 23:50:16 19° NE 23:50:16 19° NE
CZ-4 R/B 1.2 23:48:07 10° SSE 23:51:57 61° ENE 23:55:46 10° N
Cosmos 1812 Rocket 3.5 23:49:57 10° S 23:54:15 56° E 23:58:33 10° NNE
Okean O Rocket 4.4 23:52:56 10° SW 23:56:12 21° W 23:59:29 10° NW
